Burlington, VT

8:24 PM EDT on March 25, 2017 (GMT -0400)
Burlington International

Weather History for KBTV - September, 2013

Change the Weather History Date:

Monday, September 9, 2013

  Actual Average Record
Temperature  
Mean Temperature 55 °F 63 °F  
Max Temperature 69 °F 73 °F 98 °F (2002)
Min Temperature 41 °F 53 °F 37 °F (1938)
Degree Days  
Heating Degree Days 10 4  
Month to date heating degree days 42 25  
Since 1 July heating degree days 58 67  
Cooling Degree Days 0 2  
Month to date cooling degree days 28 23  
Year to date cooling degree days 628 471  
Growing Degree Days 5 (Base 50)    
Moisture  
Dew Point 43 °F    
Average Humidity 68    
Maximum Humidity 96    
Minimum Humidity 40    
Precipitation  
Precipitation 0.00 in 0.12 in 1.90 in (1885)
Month to date precipitation 1.43 0.99  
Year to date precipitation 34.12 25.06  
Snow  
Snow 0.00 in 0.00 in 0.00 in (2002)
Month to date snowfall 0.0 0.0  
Since 1 July snowfall 0.0 0.0  
Since 1 September snowfall 0.0 0.0  
Snow Depth 0.00 in    
Sea Level Pressure  
Sea Level Pressure 30.13 in    
Wind  
Wind Speed 8 mph (South)    
Max Wind Speed 18 mph    
Max Gust Speed 24 mph    
Visibility 10 miles    
Events      
T = Trace of Precipitation, MM = Missing Value Source: NWS Daily Summary

Daily Weather History Graph

Daily Weather History Graph

Search for Another Location

Airport or City:

Trip Planner

Search our weather history database for the weather conditions in past years. The results will help you decide how hot, cold, wet, or windy it might be!

Date:

Astronomy

Sep. 09, 2013 Rise Set
Actual Time 6:24 AM EDT 7:14 PM EDT
Civil Twilight 5:55 AM EDT 7:43 PM EDT
Nautical Twilight 5:20 AM EDT 8:18 PM EDT
Astronomical Twilight 4:43 AM EDT 8:54 PM EDT
Moon 10:55 AM EDT (9/9) 9:15 PM EDT (9/9)
Length of Visible Light 13h 48m
Length of Day
12h 49m
Waxing Crescent, 19% of the Moon is Illuminated
Sep 9
Waxing Crescent
Sep 12
First Quarter
Sep 19
Full
Sep 26
Last Quarter
Oct 4
New

Hourly Weather History & Observations

Time (EDT) Temp. Windchill Dew Point Humidity Pressure Visibility Wind Dir Wind Speed Gust Speed Precip Events Conditions
12:54 AM 45.0 °F - 42.1 °F 90% 30.12 in 10.0 mi Calm Calm - N/A   Clear
1:54 AM 43.0 °F 41.3 °F 41.0 °F 93% 30.14 in 10.0 mi ESE 3.5 mph - N/A   Clear
2:54 AM 43.0 °F - 41.0 °F 93% 30.15 in 10.0 mi Calm Calm - N/A   Clear
3:54 AM 42.1 °F - 39.9 °F 92% 30.16 in 10.0 mi Calm Calm - N/A   Clear
4:54 AM 42.1 °F - 39.0 °F 89% 30.17 in 10.0 mi Calm Calm - N/A   Clear
5:54 AM 42.1 °F 39.2 °F 39.9 °F 92% 30.18 in 10.0 mi ENE 4.6 mph - N/A   Clear
6:54 AM 42.1 °F - 39.9 °F 92% 30.19 in 10.0 mi Calm Calm - N/A   Clear
7:54 AM 46.0 °F - 43.0 °F 89% 30.20 in 10.0 mi Calm Calm - N/A   Clear
8:54 AM 52.0 °F - 44.1 °F 74% 30.19 in 10.0 mi South 9.2 mph - N/A   Clear
9:50 AM 53.6 °F - 42.1 °F 65% 30.19 in 10.0 mi SW 10.4 mph - N/A   Clear
9:54 AM - - - N/A% 30.19 in - North - - N/A   Unknown
10:54 AM 57.7 °F - 43.7 °F 60% 30.18 in 10.0 mi SW 11.5 mph 17.3 mph N/A   Clear
11:54 AM 62.1 °F - 41.0 °F 46% 30.17 in 10.0 mi SSW 11.5 mph 21.9 mph N/A   Clear
12:54 PM 64.9 °F - 42.1 °F 43% 30.14 in 10.0 mi South 16.1 mph 20.7 mph N/A   Clear
1:54 PM 64.9 °F - 42.1 °F 43% 30.14 in 10.0 mi South 10.4 mph - N/A   Clear
2:54 PM 69.1 °F - 44.1 °F 40% 30.12 in 10.0 mi SSW 6.9 mph - N/A   Clear
3:54 PM 68.0 °F - 45.0 °F 43% 30.09 in 10.0 mi South 6.9 mph - N/A   Clear
4:54 PM 66.9 °F - 44.1 °F 44% 30.07 in 10.0 mi South 6.9 mph 17.3 mph N/A   Clear
5:54 PM 64.9 °F - 45.0 °F 48% 30.06 in 10.0 mi South 9.2 mph - N/A   Clear
6:54 PM 64.0 °F - 45.0 °F 50% 30.06 in 10.0 mi South 12.7 mph - N/A   Clear
7:54 PM 62.1 °F - 46.0 °F 56% 30.06 in 10.0 mi South 9.2 mph - N/A   Clear
8:54 PM 62.1 °F - 46.0 °F 56% 30.06 in 10.0 mi South 10.4 mph - N/A   Clear
9:54 PM 62.1 °F - 46.9 °F 58% 30.05 in 10.0 mi South 11.5 mph 18.4 mph N/A   Clear
10:54 PM 62.1 °F - 48.0 °F 60% 30.04 in 10.0 mi South 12.7 mph - 0.01 in   Clear
11:54 PM 61.0 °F - 48.9 °F 64% 30.05 in 10.0 mi South 11.5 mph - N/A   Clear